This is the latest recevied weather packets stored in our database for station/object K2RMB. If no packets are shown the sender has not sent any weather packets the latest 10 day(s).
| Time | Temp. | Humidity | Pressure | Rain* | Wind** | Luminosity | Snow |
|---|---|---|---|---|---|---|---|
| 1777388718 | 19.44° C | 38% | 1020.9 hPa | 0 mm | - | 762 W/m² | - |
| 1777388415 | 18.33° C | 39% | 1020.9 hPa | 0 mm | - | 751 W/m² | - |
| 1777388114 | 18.33° C | 38% | 1021.2 hPa | 0 mm | - | 739 W/m² | - |
| 1777387810 | 18.33° C | 38% | 1021.2 hPa | 0 mm | - | 665 W/m² | - |
| 1777387507 | 18.33° C | 39% | 1021.6 hPa | 0 mm | - | 727 W/m² | - |
| 1777387203 | 18.33° C | 40% | 1021.6 hPa | 0 mm | - | 725 W/m² | - |
| 1777386898 | 17.78° C | 43% | 1021.6 hPa | 0 mm | - | 713 W/m² | - |
| 1777386595 | 18.33° C | 38% | 1021.6 hPa | 0 mm | - | 690 W/m² | - |
| 1777386292 | 17.78° C | 40% | 1021.6 hPa | 0 mm | - | 680 W/m² | - |
| 1777385989 | 17.78° C | 39% | 1021.6 hPa | 0 mm | - | 673 W/m² | - |
| 1777385685 | 17.78° C | 40% | 1021.9 hPa | 0 mm | - | 668 W/m² | - |
| 1777385383 | 17.78° C | 38% | 1021.6 hPa | 0 mm | - | 649 W/m² | - |
| 1777385080 | 17.22° C | 40% | 1021.6 hPa | 0 mm | - | 647 W/m² | - |
| 1777384776 | 17.22° C | 40% | 1021.6 hPa | 0 mm | - | 632 W/m² | - |
| 1777384472 | 17.22° C | 42% | 1021.6 hPa | 0 mm | - | 609 W/m² | - |
| 1777384167 | 16.67° C | 39% | 1021.6 hPa | 0 mm | - | 591 W/m² | - |
| 1777383863 | 16.67° C | 41% | 1021.6 hPa | 0 mm | - | 568 W/m² | - |
| 1777383560 | 16.67° C | 41% | 1021.6 hPa | 0 mm | - | 560 W/m² | - |
| 1777383256 | 17.22° C | 41% | 1021.6 hPa | 0 mm | - | 550 W/m² | - |
| 1777382953 | 17.22° C | 40% | 1021.6 hPa | 0 mm | - | 532 W/m² | - |
| 1777382648 | 16.67° C | 40% | 1021.6 hPa | 0 mm | - | 517 W/m² | - |
| 1777382344 | 16.67° C | 41% | 1021.6 hPa | 0 mm | - | 507 W/m² | - |
| 1777382040 | 16.67° C | 45% | 1021.6 hPa | 0 mm | - | 500 W/m² | - |
| 1777381736 | 16.11° C | 43% | 1021.6 hPa | 0 mm | - | 478 W/m² | - |
| 1777381430 | 16.11° C | 41% | 1021.6 hPa | 0 mm | - | 451 W/m² | - |
* Rain latest hour (hover to see other rain measurements)
** Current wind speed in m/s (hover to see current wind gust speed)